Location: Unspecified
(0.0000°N, 0.0000°E)
Time: 10:47:34
(UTC+00:00)

Envisat - Pass Details

Date: 26 January 2021
Orbit: 764 x 766 km, 98.1° (Epoch: 25 February)

Event Time Altitude Azimuth Distance (km) Brightness Sun altitude
Rises 04:11:37 0° 51° (NE) 3,216 6.6 -28.5°
Reaches altitude 10° 04:15:36 10° 83° (E) 2,294 6.2 -27.6°
Maximum altitude 04:17:18 12° 103° (ESE) 2,182 6.3 -27.2°
Drops below altitude 10° 04:19:00 10° 123° (ESE) 2,297 6.4 -26.8°
Sets 04:22:59 0° 154° (SSE) 3,227 6.9 -25.8°
